Time,TemperatureF,DewpointF,PressureIn,WindDirection,WindDirectionDegrees,WindSpeedMPH,WindSpeedGustMPH,Humidity,HourlyPrecipIn,Conditions,Clouds,dailyrainin,SoftwareType,DateUTC
2013-09-22 00:11:00,35.0,33.0,-100.00,NNE,28,13.0,27.0,93,-99.99,,,-99.99,,2013-09-22 08:11:00,
2013-09-22 00:21:00,35.0,33.0,-100.00,NE,35,11.0,21.0,91,-99.99,,,-99.99,,2013-09-22 08:21:00,
2013-09-22 00:22:00,35.0,33.0,-100.00,NNE,28,13.0,27.0,93,-99.99,,,-99.99,,2013-09-22 08:22:00,
2013-09-22 00:32:00,35.0,33.0,-100.00,NNE,28,13.0,27.0,93,-99.99,,,-99.99,,2013-09-22 08:32:00,
2013-09-22 00:52:00,35.0,33.0,-100.00,NE,35,11.0,21.0,91,-99.99,,,-99.99,,2013-09-22 08:52:00,
2013-09-22 01:02:00,35.0,33.0,-100.00,NE,35,11.0,21.0,91,-99.99,,,-99.99,,2013-09-22 09:02:00,
2013-09-22 01:11:00,35.0,33.0,-100.00,NE,35,11.0,21.0,91,-99.99,,,-99.99,,2013-09-22 09:11:00,
2013-09-22 01:43:00,35.0,33.0,-100.00,NNE,32,13.0,27.0,92,-99.99,,,-99.99,,2013-09-22 09:43:00,
2013-09-22 01:51:00,34.0,33.0,-100.00,NNE,31,10.0,23.0,95,-99.99,,,-99.99,,2013-09-22 09:51:00,
2013-09-22 01:53:00,35.0,33.0,-100.00,NNE,32,13.0,27.0,92,-99.99,,,-99.99,,2013-09-22 09:53:00,
2013-09-22 02:12:00,34.0,32.0,-100.00,NNE,26,12.0,23.0,94,-99.99,,,-99.99,,2013-09-22 10:12:00,
2013-09-22 02:23:00,34.0,33.0,-100.00,NNE,31,10.0,23.0,95,-99.99,,,-99.99,,2013-09-22 10:23:00,
2013-09-22 02:33:00,34.0,33.0,-100.00,NNE,31,10.0,23.0,95,-99.99,,,-99.99,,2013-09-22 10:33:00,
2013-09-22 02:44:00,34.0,33.0,-100.00,NNE,31,10.0,23.0,95,-99.99,,,-99.99,,2013-09-22 10:44:00,
2013-09-22 03:12:00,32.0,31.0,-100.00,NNE,31,11.0,19.0,97,-99.99,,,-99.99,,2013-09-22 11:12:00,
2013-09-22 03:21:00,30.0,29.0,-100.00,NNE,19,8.0,17.0,95,-99.99,,,-99.99,,2013-09-22 11:21:00,
2013-09-22 03:22:00,32.0,31.0,-100.00,NNE,27,11.0,20.0,97,-99.99,,,-99.99,,2013-09-22 11:22:00,
2013-09-22 03:33:00,32.0,31.0,-100.00,NNE,27,11.0,20.0,97,-99.99,,,-99.99,,2013-09-22 11:33:00,
2013-09-22 03:42:00,32.0,31.0,-100.00,NNE,27,11.0,20.0,97,-99.99,,,-99.99,,2013-09-22 11:42:00,
2013-09-22 03:52:00,30.0,29.0,-100.00,NNE,19,8.0,17.0,95,-99.99,,,-99.99,,2013-09-22 11:52:00,
2013-09-22 04:02:00,30.0,29.0,-100.00,NNE,19,8.0,17.0,95,-99.99,,,-99.99,,2013-09-22 12:02:00,
2013-09-22 04:12:00,30.0,29.0,-100.00,NNE,19,8.0,17.0,95,-99.99,,,-99.99,,2013-09-22 12:12:00,
2013-09-22 05:21:00,30.0,27.0,-100.00,NNE,27,10.0,19.0,89,-99.99,,,-99.99,,2013-09-22 13:21:00,
2013-09-22 05:42:00,30.0,27.0,-100.00,NNE,25,11.0,20.0,88,-99.99,,,-99.99,,2013-09-22 13:42:00,
2013-09-22 05:52:00,30.0,27.0,-100.00,NNE,25,11.0,20.0,88,-99.99,,,-99.99,,2013-09-22 13:52:00,
2013-09-22 06:42:00,29.0,26.0,-100.00,NNE,26,14.0,28.0,89,-99.99,,,-99.99,,2013-09-22 14:42:00,
2013-09-22 06:51:00,28.0,26.0,-100.00,NNE,27,14.0,26.0,93,-99.99,,,-99.99,,2013-09-22 14:51:00,
2013-09-22 06:52:00,29.0,27.0,-100.00,NNE,31,14.0,26.0,91,-99.99,,,-99.99,,2013-09-22 14:52:00,
2013-09-22 07:02:00,29.0,27.0,-100.00,NNE,31,14.0,26.0,91,-99.99,,,-99.99,,2013-09-22 15:02:00,
2013-09-22 07:12:00,29.0,27.0,-100.00,NNE,31,14.0,26.0,91,-99.99,,,-99.99,,2013-09-22 15:12:00,
2013-09-22 07:23:00,28.0,26.0,-100.00,NNE,27,14.0,26.0,93,-99.99,,,-99.99,,2013-09-22 15:23:00,
2013-09-22 07:34:00,28.0,26.0,-100.00,NNE,27,14.0,26.0,93,-99.99,,,-99.99,,2013-09-22 15:34:00,
2013-09-22 07:44:00,28.0,26.0,-100.00,NNE,27,14.0,26.0,93,-99.99,,,-99.99,,2013-09-22 15:44:00,
2013-09-22 07:51:00,28.0,27.0,-100.00,NNE,30,12.0,27.0,95,-99.99,,,-99.99,,2013-09-22 15:51:00,
2013-09-22 08:24:00,28.0,27.0,-100.00,NNE,30,12.0,27.0,95,-99.99,,,-99.99,,2013-09-22 16:24:00,
2013-09-22 08:33:00,28.0,27.0,-100.00,NNE,30,12.0,27.0,95,-99.99,,,-99.99,,2013-09-22 16:33:00,
2013-09-22 08:43:00,28.0,27.0,-100.00,NNE,30,12.0,27.0,95,-99.99,,,-99.99,,2013-09-22 16:43:00,
2013-09-22 09:12:00,28.0,27.0,-100.00,NNE,32,11.0,21.0,96,-99.99,,,-99.99,,2013-09-22 17:12:00,
2013-09-22 09:23:00,28.0,27.0,-100.00,NNE,32,12.0,23.0,96,-99.99,,,-99.99,,2013-09-22 17:23:00,
2013-09-22 09:43:00,28.0,27.0,-100.00,NE,38,13.0,27.0,96,-99.99,,,-99.99,,2013-09-22 17:43:00,
2013-09-22 09:53:00,28.0,27.0,-100.00,NE,38,13.0,27.0,96,-99.99,,,-99.99,,2013-09-22 17:53:00,
2013-09-22 10:13:00,28.0,27.0,-100.00,NNE,29,13.0,21.0,96,-99.99,,,-99.99,,2013-09-22 18:13:00,
2013-09-22 10:22:00,28.0,27.0,-100.00,NNE,29,13.0,21.0,96,-99.99,,,-99.99,,2013-09-22 18:22:00,
2013-09-22 10:42:00,28.0,27.0,-100.00,NNE,30,10.0,23.0,97,-99.99,,,-99.99,,2013-09-22 18:42:00,
2013-09-22 10:52:00,28.0,27.0,-100.00,NNE,30,10.0,19.0,97,-99.99,,,-99.99,,2013-09-22 18:52:00,
2013-09-22 11:02:00,28.0,27.0,-100.00,NNE,30,10.0,19.0,97,-99.99,,,-99.99,,2013-09-22 19:02:00,
2013-09-22 11:11:00,28.0,27.0,-100.00,NNE,30,10.0,19.0,97,-99.99,,,-99.99,,2013-09-22 19:11:00,
2013-09-22 11:22:00,28.0,27.0,-100.00,NNE,23,8.0,16.0,97,-99.99,,,-99.99,,2013-09-22 19:22:00,
2013-09-22 11:52:00,29.0,28.0,-100.00,NNE,18,10.0,19.0,97,-99.99,,,-99.99,,2013-09-22 19:52:00,
2013-09-22 12:12:00,29.0,28.0,-100.00,NNE,23,9.0,18.0,97,-99.99,,,-99.99,,2013-09-22 20:12:00,
2013-09-22 12:22:00,29.0,28.0,-100.00,NNE,23,9.0,18.0,97,-99.99,,,-99.99,,2013-09-22 20:22:00,
2013-09-22 12:42:00,29.0,28.0,-100.00,NNE,31,11.0,21.0,96,-99.99,,,-99.99,,2013-09-22 20:42:00,
2013-09-22 12:52:00,29.0,28.0,-100.00,NNE,31,11.0,21.0,96,-99.99,,,-99.99,,2013-09-22 20:52:00,
2013-09-22 13:12:00,29.0,28.0,-100.00,NNE,30,11.0,19.0,96,-99.99,,,-99.99,,2013-09-22 21:12:00,
2013-09-22 13:22:00,30.0,29.0,-100.00,NNE,29,9.0,17.0,96,-99.99,,,-99.99,,2013-09-22 21:22:00,
2013-09-22 13:23:00,29.0,28.0,-100.00,NNE,30,11.0,19.0,96,-99.99,,,-99.99,,2013-09-22 21:23:00,
2013-09-22 13:45:00,30.0,29.0,-100.00,NNE,25,8.0,19.0,96,-99.99,,,-99.99,,2013-09-22 21:45:00,
2013-09-22 13:54:00,30.0,29.0,-100.00,NNE,29,9.0,17.0,96,-99.99,,,-99.99,,2013-09-22 21:54:00,
2013-09-22 14:04:00,30.0,29.0,-100.00,NNE,29,9.0,17.0,96,-99.99,,,-99.99,,2013-09-22 22:04:00,
2013-09-22 14:14:00,30.0,29.0,-100.00,NNE,29,9.0,17.0,96,-99.99,,,-99.99,,2013-09-22 22:14:00,
2013-09-22 14:43:00,31.0,30.0,-100.00,NNE,33,8.0,14.0,96,-99.99,,,-99.99,,2013-09-22 22:43:00,
2013-09-22 14:53:00,31.0,30.0,-100.00,NNE,33,8.0,14.0,96,-99.99,,,-99.99,,2013-09-22 22:53:00,
2013-09-22 15:03:00,31.0,30.0,-100.00,NNE,33,8.0,14.0,96,-99.99,,,-99.99,,2013-09-22 23:03:00,
2013-09-22 15:22:00,31.0,30.0,-100.00,NNE,30,6.0,19.0,96,-99.99,,,-99.99,,2013-09-22 23:22:00,
2013-09-22 15:34:00,31.0,30.0,-100.00,NNE,30,6.0,19.0,96,-99.99,,,-99.99,,2013-09-22 23:34:00,
2013-09-22 15:43:00,31.0,30.0,-100.00,NNE,30,6.0,19.0,96,-99.99,,,-99.99,,2013-09-22 23:43:00,
2013-09-22 15:52:00,32.0,31.0,-100.00,NNE,27,8.0,14.0,96,-99.99,,,-99.99,,2013-09-22 23:52:00,
2013-09-22 16:12:00,31.0,30.0,-100.00,NNE,30,8.0,19.0,96,-99.99,,,-99.99,,2013-09-23 00:12:00,
2013-09-22 16:22:00,31.0,30.0,-100.00,NNE,30,8.0,19.0,96,-99.99,,,-99.99,,2013-09-23 00:22:00,
2013-09-22 16:32:00,31.0,30.0,-100.00,NNE,30,8.0,19.0,96,-99.99,,,-99.99,,2013-09-23 00:32:00,
2013-09-22 17:52:00,31.0,30.0,-100.00,NE,36,9.0,14.0,97,-99.99,,,-99.99,,2013-09-23 01:52:00,
2013-09-22 18:11:00,31.0,30.0,-100.00,NE,36,10.0,18.0,96,-99.99,,,-99.99,,2013-09-23 02:11:00,
2013-09-22 18:22:00,31.0,30.0,-100.00,NE,36,10.0,18.0,96,-99.99,,,-99.99,,2013-09-23 02:22:00,
2013-09-22 18:32:00,31.0,30.0,-100.00,NE,36,10.0,18.0,96,-99.99,,,-99.99,,2013-09-23 02:32:00,
2013-09-22 18:52:00,30.0,29.0,-100.00,NNE,28,9.0,16.0,96,-99.99,,,-99.99,,2013-09-23 02:52:00,
2013-09-22 19:12:00,30.0,29.0,-100.00,NE,38,8.0,16.0,96,-99.99,,,-99.99,,2013-09-23 03:12:00,
2013-09-22 19:22:00,30.0,29.0,-100.00,NNE,28,9.0,16.0,96,-99.99,,,-99.99,,2013-09-23 03:22:00,
2013-09-22 19:34:00,30.0,29.0,-100.00,NNE,28,9.0,16.0,96,-99.99,,,-99.99,,2013-09-23 03:34:00,
2013-09-22 19:44:00,30.0,29.0,-100.00,NNE,28,9.0,16.0,96,-99.99,,,-99.99,,2013-09-23 03:44:00,
2013-09-22 20:24:00,30.0,29.0,-100.00,NNE,20,8.0,14.0,97,-99.99,,,-99.99,,2013-09-23 04:24:00,
2013-09-22 20:43:00,29.0,29.0,-100.00,NNE,33,9.0,14.0,98,-99.99,,,-99.99,,2013-09-23 04:43:00,
2013-09-22 20:53:00,29.0,29.0,-100.00,NNE,33,9.0,14.0,98,-99.99,,,-99.99,,2013-09-23 04:53:00,
2013-09-22 21:12:00,29.0,29.0,-100.00,NNE,29,10.0,19.0,98,-99.99,,,-99.99,,2013-09-23 05:12:00,
2013-09-22 21:22:00,29.0,29.0,-100.00,NNE,29,10.0,19.0,98,-99.99,,,-99.99,,2013-09-23 05:22:00,
2013-09-22 21:43:00,29.0,29.0,-100.00,NNE,29,10.0,20.0,98,-99.99,,,-99.99,,2013-09-23 05:43:00,
2013-09-22 21:52:00,29.0,28.0,-100.00,NNE,33,14.0,23.0,97,-99.99,,,-99.99,,2013-09-23 05:52:00,
2013-09-22 21:53:00,29.0,29.0,-100.00,NNE,29,10.0,20.0,98,-99.99,,,-99.99,,2013-09-23 05:53:00,
2013-09-22 22:02:00,29.0,29.0,-100.00,NNE,29,10.0,20.0,98,-99.99,,,-99.99,,2013-09-23 06:02:00,
2013-09-22 22:22:00,29.0,28.0,-100.00,NNE,33,14.0,23.0,97,-99.99,,,-99.99,,2013-09-23 06:22:00,
2013-09-22 22:32:00,29.0,28.0,-100.00,NNE,33,14.0,23.0,97,-99.99,,,-99.99,,2013-09-23 06:32:00,
2013-09-22 22:42:00,29.0,28.0,-100.00,NNE,33,14.0,23.0,97,-99.99,,,-99.99,,2013-09-23 06:42:00,
2013-09-22 23:11:00,28.0,27.0,-100.00,NNE,31,9.0,23.0,96,-99.99,,,-99.99,,2013-09-23 07:11:00,
2013-09-22 23:22:00,27.0,27.0,-100.00,NE,35,10.0,19.0,100,-99.99,,,-99.99,,2013-09-23 07:22:00,
2013-09-22 23:32:00,27.0,27.0,-100.00,NE,35,10.0,19.0,100,-99.99,,,-99.99,,2013-09-23 07:32:00,
2013-09-22 23:42:00,27.0,27.0,-100.00,NE,35,10.0,19.0,100,-99.99,,,-99.99,,2013-09-23 07:42:00,
2013-09-22 23:52:00,28.0,27.0,-100.00,NE,35,10.0,18.0,96,-99.99,,,-99.99,,2013-09-23 07:52:00,